KQ4KX Weather Reports


time (UTC)temp
F
wind
direction
speed
knots
gust
knots
rain 1hr
in
rain 24hr
in
rain mn
in
humidity
%
barometer
mb
20260904192534 88 274 1.7 4.3 0.00 0.24 0.00 79 1014.2
20260904192228 86 293 1.7 4.3 0.00 0.24 0.00 79 1014.4
20260904192035 86 293 1.7 4.3 0.00 0.24 0.00 79 1014.4
20260904191534 85 302 1.7 2.6 0.00 0.24 0.00 85 1014.7
20260904191246 82 293 0.9 2.6 0.00 0.24 0.00 88 1015.1
20260904191035 82 293 0.9 2.6 0.00 0.24 0.00 88 1015.1
20260904190714 81 254 0.9 2.6 0.00 0.24 0.00 90 1014.8
20260904190535 81 254 0.9 2.6 0.00 0.24 0.00 90 1014.8
20260904190251 80 233 1.7 4.3 0.00 0.24 0.00 90 1015.0
20260904190004 80 233 1.7 4.3 0.00 0.24 0.00 90 1015.0
20260904185504 80 206 2.6 7.8 0.00 0.24 0.00 88 1015.2
20260904185124 81 189 5.2 9.6 0.00 0.24 0.00 87 1015.2
20260904184935 81 189 5.2 9.6 0.00 0.24 0.00 87 1015.2
20260904184435 82 193 6.1 9.6 0.00 0.24 0.00 84 1015.0
20260904183406 88 189 3.5 14.8 0.00 0.24 0.00 76 1015.3
20260904182835 90 178 2.6 6.1 0.00 0.24 0.00 76 1015.1
20260904181834 92 193 3.5 8.7 0.00 0.24 0.00 74 1015.2
20260904180805 92 182 2.6 10.4 0.00 0.24 0.00 73 1015.2
20260904180009 91 213 3.5 8.7 0.00 0.24 0.00 77 1015.3
20260904175734 91 213 3.5 8.7 0.00 0.24 0.00 77 1015.3
20260904175234 91 195 2.6 7.8 0.00 0.24 0.00 74 1015.4
20260904174704 90 217 1.7 6.1 0.00 0.24 0.00 76 1015.3
20260904174135 90 222 1.7 7.0 0.00 0.24 0.00 75 1015.4
20260904173605 90 213 1.7 7.0 0.00 0.24 0.00 75 1015.5
20260904173343 90 202 1.7 4.3 0.00 0.24 0.00 77 1015.5
20260904173105 90 202 1.7 4.3 0.00 0.24 0.00 77 1015.5
20260904172605 90 204 1.7 7.0 0.00 0.24 0.00 75 1015.6
20260904172408 91 219 1.7 7.0 0.00 0.24 0.00 74 1015.6
20260904172035 91 219 1.7 7.0 0.00 0.24 0.00 74 1015.6
20260904171722 91 224 1.7 4.3 0.00 0.24 0.00 76 1015.5
20260904171504 91 224 1.7 4.3 0.00 0.24 0.00 76 1015.5
20260904170713 91 225 2.6 7.0 0.00 0.24 0.00 77 1015.8
20260904170435 91 225 2.6 7.0 0.00 0.24 0.00 77 1015.8
20260904165905 91 227 2.6 7.0 0.00 0.24 0.00 77 1015.8
20260904163805 90 213 2.6 7.8 0.00 0.24 0.00 76 1016.2
20260904163235 90 223 2.6 7.8 0.00 0.24 0.00 79 1016.3
20260904162705 89 230 3.5 7.8 0.00 0.24 0.00 81 1016.3
20260904162136 89 238 3.5 7.8 0.00 0.24 0.00 79 1016.4
20260904161836 88 239 3.5 7.8 0.00 0.24 0.00 80 1016.5
20260904161635 88 239 3.5 7.8 0.00 0.24 0.00 80 1016.5
20260904160829 88 264 1.7 3.5 0.00 0.24 0.00 82 1016.6
20260904160605 88 264 1.7 3.5 0.00 0.24 0.00 82 1016.6
20260904160105 88 270 1.7 2.6 0.00 0.24 0.00 82 1016.6
20260904155035 89 210 1.7 5.2 0.00 0.24 0.00 81 1016.6
20260904154310 88 231 1.7 5.2 0.00 0.24 0.00 82 1016.7
20260904154005 88 231 1.7 5.2 0.00 0.24 0.00 82 1016.7
20260904152934 88 193 2.6 7.0 0.00 0.24 0.00 82 1016.6
20260904152656 88 189 1.7 7.0 0.00 0.24 0.00 82 1016.6
20260904152434 88 189 1.7 7.0 0.00 0.24 0.00 82 1016.6
20260904151904 88 213 1.7 6.1 0.00 0.24 0.00 83 1016.5
20260904151656 88 218 2.6 5.2 0.00 0.24 0.00 84 1016.5
20260904151405 88 218 2.6 5.2 0.00 0.24 0.00 84 1016.5
20260904150405 88 194 2.6 7.0 0.00 0.24 0.00 84 1016.4
20260904145835 87 192 1.7 5.2 0.00 0.24 0.00 84 1016.3
20260904145306 87 194 1.7 5.2 0.00 0.24 0.00 85 1016.3
20260904144234 86 190 2.6 6.1 0.00 0.24 0.00 87 1016.3
20260904143734 86 201 1.7 6.1 0.00 0.24 0.00 87 1016.3
20260904143205 85 206 1.7 6.1 0.00 0.24 0.00 87 1016.3
20260904142934 85 188 1.7 4.3 0.00 0.24 0.00 89 1016.2
20260904142635 85 188 1.7 4.3 0.00 0.24 0.00 89 1016.2
20260904141605 84 188 1.7 6.1 0.00 0.24 0.00 89 1016.2
20260904141104 84 183 2.6 7.0 0.00 0.24 0.00 90 1016.2
20260904140856 83 198 2.6 7.0 0.00 0.24 0.00 90 1016.1
20260904140534 83 198 2.6 7.0 0.00 0.24 0.00 90 1016.1
20260904140035 83 210 2.6 7.0 0.00 0.24 0.00 91 1016.0
20260904135004 83 191 2.6 7.8 0.00 0.24 0.00 91 1016.1
20260904134716 82 180 2.6 7.0 0.00 0.24 0.00 93 1016.1
20260904134504 82 180 2.6 7.0 0.00 0.24 0.00 93 1016.1
20260904134320 82 207 1.7 6.1 0.00 0.24 0.00 92 1016.0
20260904134005 82 207 1.7 6.1 0.00 0.24 0.00 92 1016.0
20260904133804 82 222 1.7 6.1 0.00 0.24 0.00 95 1016.1
20260904133435 82 222 1.7 6.1 0.00 0.24 0.00 95 1016.1
20260904132709 81 207 0.9 3.5 0.00 0.24 0.00 95 1015.9
20260904132404 81 207 0.9 3.5 0.00 0.24 0.00 95 1015.9
20260904124734 79 187 1.7 4.3 0.00 0.24 0.00 98 1015.6
20260904124401 79 185 1.7 5.2 0.00 0.24 0.00 98 1015.5
20260904124205 79 185 1.7 5.2 0.00 0.24 0.00 98 1015.5
20260904123833 79 206 1.7 5.2 0.00 0.24 0.00 98 1015.5
20260904123704 79 206 1.7 5.2 0.00 0.24 0.00 98 1015.5
20260904123327 78 220 0.9 2.6 0.00 0.24 0.00 99 1015.6
20260904123134 78 220 0.9 2.6 0.00 0.24 0.00 99 1015.6
20260904122358 78 167 0.9 2.6 0.00 0.24 0.00 99 1015.6
20260904122135 78 167 0.9 2.6 0.00 0.24 0.00 99 1015.6
20260904121742 78 156 0.9 3.5 0.00 0.24 0.00 99 1015.6
20260904121635 78 156 0.9 3.5 0.00 0.24 0.00 99 1015.6
20260904120840 78 155 0.9 3.5 0.00 0.24 0.00 99 1015.4
20260904120636 78 155 0.9 3.5 0.00 0.24 0.00 99 1015.4
20260904120349 78 148 0.0 2.6 0.00 0.24 0.00 99 1015.4
20260904120136 78 148 0.0 2.6 0.00 0.24 0.00 99 1015.4
20260904114751 77 187 0.9 1.7 0.00 0.24 0.00 99 1015.3
20260904114636 77 187 0.9 1.7 0.00 0.24 0.00 99 1015.3
20260904114255 77 207 0.0 1.7 0.00 0.24 0.00 99 1015.3
20260904114105 77 207 0.0 1.7 0.00 0.24 0.00 99 1015.3
20260904113605 77 206 0.0 2.6 0.00 0.24 0.00 100 1015.3
20260904113034 77 200 0.0 2.6 0.00 0.24 0.00 99 1015.2
20260904112408 77 176 0.9 4.3 0.00 0.24 0.00 99 1015.2
20260904112035 77 176 0.9 4.3 0.00 0.24 0.00 99 1015.2
20260904111644 77 179 0.9 2.6 0.00 0.24 0.00 99 1015.1
20260904111535 77 179 0.9 2.6 0.00 0.24 0.00 99 1015.1
20260904111005 77 179 1.7 3.5 0.00 0.24 0.00 99 1015.0
20260904110434 77 176 1.7 3.5 0.00 0.24 0.00 99 1015.1
20260904110116 77 175 0.9 3.5 0.00 0.24 0.00 100 1014.9
20260904105934 77 175 0.9 3.5 0.00 0.24 0.00 100 1014.9
20260904105634 77 176 0.9 3.5 0.00 0.24 0.00 100 1014.9
20260904105435 77 176 0.9 3.5 0.00 0.24 0.00 100 1014.9
20260904104904 77 175 0.9 4.3 0.00 0.24 0.00 100 1014.9
20260904103306 77 184 0.0 3.5 0.00 0.24 0.00 100 1014.9
20260904102735 77 180 0.0 1.7 0.00 0.24 0.00 100 1014.9
20260904101830 77 161 0.9 3.5 0.00 0.24 0.00 100 1014.7
20260904101636 77 161 0.9 3.5 0.00 0.24 0.00 100 1014.7
20260904100645 77 177 0.0 1.7 0.00 0.24 0.00 100 1014.6
20260904100534 77 177 0.0 1.7 0.00 0.24 0.00 100 1014.6
20260904100220 79 83 2.6 7.0 0.00 0.00 0.00 100 1013.6
20260904100218 79 90 2.6 5.2 0.00 0.00 0.00 99 1013.8
20260904094504 76 178 0.0 1.7 0.00 0.24 0.00 100 1014.3
20260904093436 76 217 0.0 0.9 0.00 0.24 0.00 100 1014.4
20260904092904 76 220 0.9 1.7 0.00 0.24 0.00 100 1014.3
20260904092122 76 177 0.0 1.7 0.00 0.24 0.00 100 1014.3
20260904091905 76 177 0.0 1.7 0.00 0.24 0.00 100 1014.3
20260904091624 76 161 0.0 0.9 0.00 0.24 0.00 100 1014.3
20260904091405 76 161 0.0 0.9 0.00 0.24 0.00 100 1014.3
20260904091033 76 161 0.0 1.7 0.00 0.24 0.00 100 1014.3
20260904090835 76 161 0.0 1.7 0.00 0.24 0.00 100 1014.3
20260904090306 76 169 0.0 1.7 0.00 0.24 0.00 100 1014.3
20260904084704 76 176 0.0 0.9 0.00 0.24 0.00 100 1014.2
20260904083021 76 127 0.0 1.7 0.00 0.24 0.00 100 1014.2
20260904082636 76 127 0.0 1.7 0.00 0.24 0.00 100 1014.2
20260904082104 76 116 0.9 2.6 0.00 0.24 0.00 100 1014.3
20260904081604 76 112 0.9 2.6 0.00 0.24 0.00 100 1014.3
20260904081414 76 100 0.9 3.5 0.00 0.24 0.00 100 1014.2
20260904081105 76 100 0.9 3.5 0.00 0.24 0.00 100 1014.2
20260904080604 76 100 1.7 3.5 0.00 0.24 0.00 100 1014.4
20260904080104 76 104 1.7 3.5 0.00 0.24 0.00 100 1014.4
20260904075843 76 109 1.7 3.5 0.00 0.24 0.00 100 1014.3
20260904075605 76 109 1.7 3.5 0.00 0.24 0.00 100 1014.3
20260904075341 77 105 1.7 5.2 0.00 0.24 0.00 100 1014.4
20260904075035 77 105 1.7 5.2 0.00 0.24 0.00 100 1014.4
20260904074144 77 101 2.6 5.2 0.00 0.24 0.00 100 1014.2
20260904074005 77 101 2.6 5.2 0.00 0.24 0.00 100 1014.2
20260904073138 77 102 2.6 5.2 0.00 0.24 0.00 100 1014.2
20260904072904 77 102 2.6 5.2 0.00 0.24 0.00 100 1014.2
20260904072405 77 101 2.6 5.2 0.00 0.24 0.00 100 1014.2
20260904071905 77 102 2.6 5.2 0.00 0.24 0.00 100 1014.2
20260904071603 77 100 2.6 5.2 0.00 0.24 0.00 100 1014.2
20260904071404 77 100 2.6 5.2 0.00 0.24 0.00 100 1014.2
20260904071050 77 103 1.7 5.2 0.00 0.24 0.00 100 1014.1
20260904070835 77 103 1.7 5.2 0.00 0.24 0.00 100 1014.1
20260904070335 77 105 1.7 3.5 0.00 0.24 0.00 100 1014.1
20260904065835 77 102 2.6 3.5 0.00 0.24 0.00 100 1014.2
20260904064443 77 99 2.6 5.2 0.00 0.24 0.00 100 1014.3
20260904064235 77 99 2.6 5.2 0.00 0.24 0.00 100 1014.3
20260904063704 77 88 1.7 5.2 0.00 0.24 0.00 100 1014.3
20260904063204 77 89 1.7 5.2 0.00 0.24 0.00 100 1014.3
20260904062104 77 104 0.9 3.5 0.00 0.24 0.00 100 1014.4
20260904061535 77 152 0.9 2.6 0.00 0.24 0.00 100 1014.4
20260904061035 77 195 0.0 1.7 0.00 0.24 0.00 99 1014.4
20260904060504 77 195 0.0 0.9 0.00 0.24 0.00 100 1014.5
20260904055934 77 186 0.0 0.9 0.00 0.24 0.00 99 1014.6
20260904055434 78 174 0.0 1.7 0.00 0.24 0.00 99 1014.7
20260904054404 78 167 0.9 3.5 0.00 0.24 0.00 100 1014.7
20260904054133 78 164 0.9 2.6 0.00 0.24 0.00 100 1014.7
20260904053835 78 164 0.9 2.6 0.00 0.24 0.00 100 1014.7
20260904053334 78 168 0.9 2.6 0.00 0.24 0.00 100 1014.8
20260904051530 77 163 0.9 4.3 0.00 0.24 0.00 100 1014.9
20260904051304 77 163 0.9 4.3 0.00 0.24 0.00 100 1014.9
20260904050736 77 153 0.9 4.3 0.00 0.24 0.00 100 1014.9
20260904045735 77 139 0.0 1.7 0.00 0.24 0.00 100 1015.0
20260904045529 77 137 0.9 1.7 0.00 0.24 0.00 100 1015.0
20260904045204 77 137 0.9 1.7 0.00 0.24 0.00 100 1015.0
20260904043104 77 106 0.9 2.6 0.00 0.24 0.00 100 1015.2
20260904042034 77 110 0.9 2.6 0.00 0.24 0.00 100 1015.2
20260904041535 77 102 1.7 3.5 0.00 0.24 0.00 100 1015.1
20260904041219 77 102 2.6 5.2 0.00 0.24 0.00 100 1015.1
20260904041007 77 102 2.6 5.2 0.00 0.24 0.00 100 1015.1
20260904040806 77 107 1.7 5.2 0.00 0.24 0.00 100 1015.1
20260904040504 77 107 1.7 5.2 0.00 0.24 0.00 100 1015.1
20260904040250 77 110 1.7 3.5 0.00 0.24 0.00 100 1015.0
20260904040005 77 110 1.7 3.5 0.00 0.24 0.00 100 1015.0
20260904035715 77 107 2.6 3.5 0.00 0.24 0.24 99 1015.1
20260904035435 77 107 2.6 3.5 0.00 0.24 0.24 99 1015.1
20260904034404 77 104 1.7 3.5 0.00 0.24 0.24 99 1015.1
20260904034212 77 107 1.7 3.5 0.00 0.24 0.24 99 1015.1
20260904033905 77 107 1.7 3.5 0.00 0.24 0.24 99 1015.1
20260904033404 77 108 2.6 3.5 0.00 0.24 0.24 99 1015.1
20260904033047 77 106 2.6 5.2 0.00 0.24 0.24 99 1015.1
20260904032834 77 106 2.6 5.2 0.00 0.24 0.24 99 1015.1
20260904032334 77 107 3.5 6.1 0.00 0.24 0.24 99 1015.0
20260904031834 77 104 3.5 6.1 0.00 0.24 0.24 99 1015.0
20260904030425 77 104 2.6 6.1 0.00 0.24 0.24 99 1015.1
20260904030234 77 104 2.6 6.1 0.00 0.24 0.24 99 1015.1
20260904025704 77 99 2.6 6.1 0.00 0.24 0.24 99 1015.1
20260904024104 77 103 2.6 6.1 0.00 0.24 0.24 99 1015.0
20260904023305 77 101 3.5 7.0 0.00 0.24 0.24 99 1014.7
20260904023005 77 101 3.5 7.0 0.00 0.24 0.24 99 1014.7
20260904022715 77 101 2.6 6.1 0.00 0.24 0.24 99 1014.7
20260904022434 77 101 2.6 6.1 0.00 0.24 0.24 99 1014.7
20260904021904 77 104 3.5 6.1 0.00 0.24 0.24 99 1014.7
20260904021201 77 109 2.6 7.8 0.00 0.24 0.24 99 1014.6
20260904020837 77 109 2.6 7.8 0.00 0.24 0.24 99 1014.6
20260904020335 77 108 1.7 7.8 0.00 0.24 0.24 99 1014.7
20260904013848 77 135 0.9 2.6 0.00 0.24 0.24 99 1014.9
20260904013734 77 135 0.9 2.6 0.00 0.24 0.24 99 1014.9
20260904013234 77 156 0.9 3.5 0.00 0.24 0.24 99 1014.8
20260904012345 77 119 0.9 3.5 0.01 0.24 0.24 99 1014.8
20260904012134 77 119 0.9 3.5 0.01 0.24 0.24 99 1014.8
20260904011738 77 116 0.0 3.5 0.01 0.24 0.24 99 1014.8
20260904011604 77 116 0.0 3.5 0.01 0.24 0.24 99 1014.8
20260904011104 77 122 0.0 1.7 0.01 0.24 0.24 98 1014.8
20260904010733 77 115 0.9 5.2 0.01 0.24 0.24 99 1014.8
20260904010604 77 115 0.9 5.2 0.01 0.24 0.24 99 1014.8
20260904005711 78 101 3.5 7.8 0.01 0.24 0.24 99 1014.6
20260904005504 78 101 3.5 7.8 0.01 0.24 0.24 99 1014.6
20260904004434 78 113 1.7 5.2 0.02 0.24 0.24 99 1014.4
20260904003934 78 104 2.6 6.1 0.03 0.24 0.24 99 1014.3
20260904002904 78 107 3.5 6.1 0.05 0.24 0.24 99 1014.2
20260904002334 78 99 3.5 6.1 0.07 0.23 0.23 99 1014.3
20260904000913 78 128 0.9 5.2 0.14 0.23 0.23 99 1014.4
20260904000734 78 128 0.9 5.2 0.14 0.23 0.23 99 1014.4
20260903235734 78 107 2.6 7.0 0.16 0.23 0.23 99 1014.4
20260903235436 79 103 4.3 7.8 0.15 0.22 0.22 98 1014.3
20260903235205 79 103 4.3 7.8 0.15 0.22 0.22 98 1014.3
20260903234704 79 102 4.3 7.8 0.15 0.22 0.22 98 1014.4
20260903234205 79 102 4.3 6.1 0.15 0.22 0.22 98 1014.3
20260903232810 79 105 2.6 6.1 0.11 0.18 0.18 98 1014.3
20260903232605 79 105 2.6 6.1 0.11 0.18 0.18 98 1014.3
20260903232402 79 112 0.9 3.5 0.08 0.15 0.15 97 1014.3
20260903232104 79 112 0.9 3.5 0.08 0.15 0.15 97 1014.3
20260903231604 79 146 0.0 2.6 0.06 0.13 0.13 97 1014.3
20260903231036 79 177 0.0 1.7 0.03 0.10 0.10 96 1014.3
20260903225434 79 237 0.9 0.9 0.00 0.07 0.07 96 1014.3
20260903224334 79 230 0.9 3.5 0.00 0.07 0.07 96 1014.0
20260903223234 79 239 1.7 3.5 0.00 0.07 0.07 95 1013.8
20260903222704 80 231 1.7 4.3 0.00 0.07 0.07 94 1013.8
20260903222134 80 244 1.7 4.3 0.00 0.07 0.07 92 1013.9
20260903221634 81 256 1.7 4.3 0.00 0.07 0.07 91 1013.9
20260903221104 82 237 1.7 4.3 0.00 0.07 0.07 90 1013.9
20260903220035 83 175 1.7 6.1 0.00 0.07 0.07 89 1013.7
20260903214739 84 104 7.0 13.9 0.01 0.07 0.07 89 1013.5
20260903214504 84 104 7.0 13.9 0.01 0.07 0.07 89 1013.5
20260903213934 84 103 8.7 13.9 0.01 0.07 0.07 91 1013.3
20260903213404 84 102 9.6 14.8 0.01 0.07 0.07 90 1013.2
20260903212834 84 99 10.4 15.6 0.02 0.07 0.07 89 1013.0
20260903212335 85 100 10.4 15.6 0.07 0.07 0.07 89 1013.0
20260903211032 87 96 5.2 17.4 0.07 0.07 0.07 87 1012.9
20260903210734 87 96 5.2 17.4 0.07 0.07 0.07 87 1012.9
20260903210204 87 81 2.6 7.8 0.07 0.07 0.07 86 1012.8
20260903210030 87 64 1.7 3.5 0.07 0.07 0.07 87 1012.6
20260903205704 87 64 1.7 3.5 0.07 0.07 0.07 87 1012.6
20260903204704 86 65 0.9 2.6 0.07 0.07 0.07 87 1012.4
20260903204134 86 84 3.5 9.6 0.06 0.06 0.06 87 1012.5
20260903203634 87 91 7.0 12.2 0.06 0.06 0.06 87 1012.8
20260903203134 89 97 7.8 12.2 0.06 0.06 0.06 82 1013.0
20260903202604 90 93 4.3 10.4 0.03 0.03 0.03 85 1012.9
20260903201036 89 56 1.7 3.5 0.00 0.00 0.00 80 1012.7
20260903195434 88 58 1.7 3.5 0.00 0.00 0.00 82 1013.2
20260903194934 88 53 1.7 3.5 0.00 0.00 0.00 83 1013.2
20260903194804 88 52 1.7 3.5 0.00 0.00 0.00 82 1013.3
20260903194434 88 52 1.7 3.5 0.00 0.00 0.00 82 1013.3
20260903193934 88 54 1.7 7.0 0.00 0.00 0.00 81 1013.4
20260903193712 88 71 2.6 7.0 0.00 0.00 0.00 82 1013.5
20260903193436 88 71 2.6 7.0 0.00 0.00 0.00 82 1013.5